EW8088 Weather Reports


time (UTC)temp
F
wind
direction
speed
knots
gust
knots
rain 1hr
in
rain 24hr
in
rain mn
in
humidity
%
barometer
mb
20260506222017 42 0.0 0.0 0.00 0.00 0.00 90 1015.7
20260506221015 43 0.0 0.0 0.00 0.00 0.00 90 1015.6
20260506220017 44 0.0 0.0 0.00 0.00 0.00 90 1015.6
20260506215037 44 0.0 0.9 0.00 0.00 0.00 90 1015.6
20260506214037 44 0.0 0.9 0.00 0.00 0.00 90 1015.6
20260506213018 45 0.0 1.7 0.00 0.00 0.00 90 1015.5
20260506212017 45 0.0 0.9 0.00 0.00 0.00 90 1015.4
20260506211017 45 0.0 0.9 0.00 0.00 0.00 90 1015.4
20260506210017 46 0.0 0.9 0.00 0.00 0.00 90 1015.4
20260506205017 46 0.0 0.9 0.00 0.00 0.00 90 1015.4
20260506204017 46 0.0 1.7 0.00 0.00 0.00 90 1015.3
20260506203015 46 0.0 0.9 0.00 0.00 0.00 90 1015.2
20260506202037 47 0.0 1.7 0.00 0.00 0.00 90 1015.2
20260506201017 47 0.0 0.9 0.00 0.00 0.00 90 1015.1
20260506200017 48 0.0 2.6 0.00 0.00 0.00 90 1015.0
20260506195017 48 0.0 2.6 0.00 0.00 0.00 90 1014.9
20260506194017 49 0.0 2.6 0.00 0.00 0.00 90 1014.8
20260506193017 49 338 0.9 5.2 0.00 0.00 0.00 89 1014.7
20260506192037 50 0 0.9 2.6 0.00 0.00 0.00 89 1014.7
20260506191017 50 0 0.9 4.3 0.00 0.00 0.00 89 1014.6
20260506190018 50 0 0.9 4.3 0.00 0.00 0.00 88 1014.5
20260506185017 51 0 0.9 5.2 0.00 0.00 0.00 88 1014.5
20260506184017 51 0 0.9 6.1 0.00 0.00 0.00 88 1014.4
20260506183017 52 338 0.9 4.3 0.00 0.00 0.00 87 1014.3
20260506182037 52 0 1.7 5.2 0.00 0.00 0.00 87 1014.2
20260506181037 53 338 1.7 5.2 0.00 0.00 0.00 87 1014.1
20260506180017 53 338 0.9 5.2 0.00 0.00 0.00 87 1014.0
20260506175016 53 338 0.9 3.5 0.00 0.00 0.00 87 1013.9
20260506174037 53 338 1.7 5.2 0.00 0.00 0.00 86 1013.9
20260506173017 54 338 1.7 7.8 0.00 0.00 0.00 83 1013.8
20260506172017 54 338 0.9 6.1 0.00 0.00 0.00 85 1013.8
20260506171017 55 338 0.9 5.2 0.00 0.00 0.00 90 1013.7
20260506170037 56 338 0.9 4.3 0.00 0.00 0.00 90 1013.8
20260506165016 57 0 0.9 4.3 0.00 0.00 0.00 91 1013.8
20260506164057 56 338 1.7 6.1 0.00 0.00 0.00 91 1013.7
20260506163017 55 0 0.9 6.1 0.00 0.00 0.00 91 1013.7
20260506162017 54 338 2.6 7.0 0.00 0.00 0.00 91 1013.8
20260506161017 55 338 1.7 7.0 0.00 0.00 0.00 92 1013.8
20260506160017 55 338 1.7 7.8 0.00 0.00 0.00 92 1013.8
20260506155016 55 0 0.9 6.1 0.00 0.00 0.00 92 1013.9
20260506154016 54 0 1.7 7.0 0.00 0.00 0.00 92 1014.0
20260506153017 54 0 1.7 7.0 0.00 0.00 0.00 92 1014.0
20260506152037 54 338 0.9 5.2 0.00 0.00 0.00 92 1014.0
20260506151017 54 0 0.9 3.5 0.00 0.00 0.00 92 1014.1
20260506150016 54 0 0.9 4.3 0.00 0.00 0.00 92 1014.1
20260506145016 54 338 0.9 6.1 0.00 0.00 0.00 92 1014.0
20260506144016 54 338 1.7 7.0 0.00 0.00 0.00 92 1014.0
20260506143037 55 338 0.9 3.5 0.00 0.00 0.00 92 1014.0
20260506142016 54 0 0.9 6.1 0.00 0.00 0.00 92 1014.0
20260506141016 54 0 0.9 7.0 0.00 0.00 0.00 92 1014.0
20260506140056 54 338 0.9 6.1 0.00 0.00 0.00 92 1014.0
20260506135016 54 338 1.7 5.2 0.00 0.00 0.00 91 1014.1
20260506134017 53 338 1.7 5.2 0.00 0.00 0.00 91 1014.1
20260506133016 52 338 1.7 7.8 0.00 0.00 0.00 91 1014.2
20260506132016 52 338 1.7 7.0 0.00 0.00 0.00 91 1014.2
20260506131016 52 0 1.7 7.0 0.00 0.00 0.00 91 1014.2
20260506130037 52 338 1.7 7.0 0.00 0.00 0.00 91 1014.3
20260506125016 53 338 0.9 5.2 0.00 0.00 0.00 91 1014.2
20260506124016 53 338 1.7 6.1 0.00 0.00 0.00 91 1014.1
20260506123016 54 338 1.7 7.0 0.00 0.00 0.00 91 1014.2
20260506122016 53 338 1.7 7.8 0.00 0.00 0.00 91 1014.2
20260506121016 54 338 0.9 5.2 0.00 0.00 0.00 91 1014.2
20260506120016 53 338 1.7 5.2 0.00 0.00 0.00 91 1014.1
20260506115016 52 0 1.7 6.1 0.00 0.00 0.00 90 1014.3
20260506114016 52 0 2.6 7.0 0.00 0.00 0.00 91 1014.3
20260506113016 53 338 1.7 8.7 0.00 0.00 0.00 91 1014.3
20260506112016 54 338 2.6 9.6 0.00 0.00 0.00 91 1014.3
20260506111016 54 338 0.9 7.0 0.00 0.00 0.00 91 1014.2
20260506110036 53 0 0.9 7.8 0.00 0.00 0.00 91 1014.2
20260506105016 53 338 1.7 8.7 0.00 0.00 0.00 91 1014.2
20260506104016 54 0 2.6 7.8 0.00 0.00 0.00 91 1014.2
20260506103016 53 338 1.7 7.0 0.00 0.00 0.00 91 1014.1
20260506102016 53 338 2.6 7.8 0.00 0.00 0.00 91 1014.2
20260506101016 52 0 1.7 7.0 0.00 0.00 0.00 91 1014.2
20260506100016 51 338 1.7 7.8 0.00 0.00 0.00 91 1014.2
20260506095016 50 338 1.7 6.1 0.00 0.00 0.00 91 1014.1
20260506094016 49 0 1.7 7.0 0.00 0.00 0.00 91 1014.2
20260506093016 49 338 1.7 5.2 0.00 0.00 0.00 92 1014.2
20260506092035 49 338 1.7 7.8 0.00 0.00 0.00 92 1014.2
20260506091016 49 338 1.7 6.1 0.00 0.00 0.00 92 1014.2
20260506090016 50 338 1.7 5.2 0.00 0.00 0.00 92 1014.1
20260506085016 49 338 0.9 5.2 0.00 0.00 0.00 92 1014.1
20260506084036 49 338 1.7 6.1 0.00 0.00 0.00 92 1014.1
20260506083016 49 338 1.7 6.1 0.00 0.00 0.00 92 1014.1
20260506082016 48 338 0.9 5.2 0.00 0.00 0.00 92 1014.1
20260506081015 48 338 1.7 4.3 0.00 0.00 0.00 92 1014.2
20260506073016 46 0 1.7 7.8 0.00 0.00 0.00 92 1014.2
20260506072036 46 0 1.7 6.1 0.00 0.00 0.00 92 1014.1
20260506071015 46 338 1.7 5.2 0.00 0.00 0.00 92 1014.1
20260506062015 45 338 0.9 4.3 0.00 0.00 0.00 93 1013.9
20260506061015 45 0 0.9 6.1 0.00 0.00 0.00 93 1013.9
20260506051015 44 0.0 1.7 0.00 0.00 0.00 93 1013.7
20260506045015 44 0.0 3.5 0.00 0.00 0.00 93 1013.6
20260506044018 44 0.0 1.7 0.00 0.00 0.00 93 1013.6
20260506043015 45 0.0 2.6 0.00 0.00 0.00 93 1013.6
20260506042017 45 0.0 2.6 0.00 0.00 0.00 93 1013.6
20260506041035 45 0.0 3.5 0.00 0.00 0.00 93 1013.6
20260506040018 45 0.0 4.3 0.00 0.00 0.00 93 1013.6
20260506035017 45 338 0.9 3.5 0.00 0.00 0.00 93 1013.6
20260506034017 45 338 0.9 4.3 0.00 0.00 0.00 93 1013.6
20260506033037 45 0 0.9 4.3 0.00 0.00 0.00 93 1013.6
20260506032018 45 338 0.9 4.3 0.00 0.00 0.00 93 1013.6
20260506031018 45 0 0.9 6.1 0.00 0.00 0.00 93 1013.7
20260506030037 46 0.0 2.6 0.00 0.00 0.00 93 1013.8
20260506025017 46 0.0 4.3 0.00 0.00 0.00 93 1013.7
20260506024037 46 0.0 2.6 0.00 0.00 0.00 93 1013.7
20260506023017 46 0 0.9 4.3 0.00 0.00 0.00 93 1013.7
20260506022017 46 0 0.9 4.3 0.00 0.00 0.00 93 1013.8
20260506021037 46 0.0 4.3 0.00 0.00 0.00 93 1013.8
20260506020015 47 0.0 4.3 0.00 0.00 0.00 93 1013.8
20260506015037 47 0.0 1.7 0.00 0.00 0.00 93 1013.8
20260506014017 47 0.0 0.9 0.00 0.00 0.00 93 1013.7
20260506013017 47 0.0 2.6 0.00 0.00 0.00 93 1013.9
20260506012017 47 0.0 1.7 0.00 0.00 0.00 93 1013.9
20260506011018 48 0.0 1.7 0.00 0.00 0.00 93 1014.0
20260506010017 48 0.0 1.7 0.00 0.00 0.00 94 1013.9
20260506005017 48 0.0 2.6 0.00 0.00 0.00 94 1013.9
20260506004017 48 0.0 2.6 0.00 0.00 0.00 94 1013.8
20260506003017 48 0.0 3.5 0.00 0.00 0.00 94 1013.9
20260506002017 48 0.0 3.5 0.00 0.00 0.00 94 1013.9
20260506001017 48 0.0 2.6 0.00 0.00 0.00 94 1014.0
20260506000017 49 0.0 3.5 0.00 0.00 0.00 94 1014.0
20260505235017 49 0.0 5.2 0.00 0.00 0.00 94 1013.9
20260505234017 49 0.0 2.6 0.00 0.00 0.00 94 1014.0
20260505233017 49 0.0 3.5 0.00 0.00 0.00 94 1014.0
20260505232017 49 0.0 2.6 0.00 0.00 0.00 94 1014.0
20260505231017 49 0.0 2.6 0.00 0.00 0.00 94 1014.0
20260505230017 49 0.0 5.2 0.00 0.00 0.00 94 1014.0
20260505225037 50 0 0.9 6.1 0.00 0.00 0.00 94 1014.0
20260505224037 50 0.0 2.6 0.00 0.00 0.00 94 1014.0
20260505223017 50 0.0 1.7 0.00 0.00 0.00 94 1014.0